Weather History for Skagway, AK

Change the Weather History Date:

Tuesday, November 9, 2010

  Actual Average Record
Temperature  
Mean Temperature 32 °F -  
Max Temperature 35 °F 38 °F 46 °F (1968)
Min Temperature 28 °F 31 °F 7 °F (1989)
Degree Days  
Heating Degree Days 34    
Moisture  
Dew Point 30 °F    
Average Humidity 90    
Maximum Humidity 100    
Minimum Humidity 76    
Precipitation  
Precipitation 0.06 in - - ()
Sea Level Pressure  
Sea Level Pressure 29.92 in    
Wind  
Wind Speed 1 mph (NNE)    
Max Wind Speed 5 mph    
Max Gust Speed -    
Visibility 8 miles    
Events Snow    
Averages and records for this station are not official NWS values.
T = Trace of Precipitation, MM = Missing Value Source: NWS Daily Summary

Daily Weather History Graph

Daily Weather History Graph

Search for Another Location

Airport:

Trip Planner

Search our weather history database for the weather conditions in past years. The results will help you decide how hot, cold, wet, or windy it might be!

Date:

Astronomy

Nov. 09, 2010 Rise Set
Actual Time 7:41 AM AKST 3:47 PM AKST
Civil Twilight 6:55 AM AKST 4:34 PM AKST
Nautical Twilight 6:05 AM AKST 5:23 PM AKST
Astronomical Twilight 5:17 AM AKST 6:11 PM AKST
Moon 12:13 PM AKST (11/9) 6:11 PM AKST (11/9)
Length of Visible Light 9h 38m
Length of Day
8h 06m
Waxing Crescent, 16% of the Moon is Illuminated
Nov 9
Waxing Crescent
Nov 13
First Quarter
Nov 21
Full
Nov 28
Last Quarter
Dec 5
New

Hourly Weather History & Observations

Time (AKST) Temp. Windchill Dew Point Humidity Pressure Visibility Wind Dir Wind Speed Gust Speed Precip Events Conditions
12:53 AM 33.1 °F - 30.0 °F 89% 29.82 in 10.0 mi Calm Calm - N/A   Overcast
1:53 AM 32.0 °F 28.7 °F 28.9 °F 88% 29.82 in 10.0 mi NNE 3.5 mph - N/A   Mostly Cloudy
2:53 AM 30.9 °F 27.5 °F 28.9 °F 92% 29.83 in 10.0 mi NNE 3.5 mph - N/A   Overcast
3:53 AM 32.0 °F - 28.9 °F 88% 29.84 in 10.0 mi Calm Calm - N/A   Overcast
4:53 AM 30.9 °F - 28.0 °F 89% 29.84 in 10.0 mi Calm Calm - N/A   Partly Cloudy
5:53 AM 30.2 °F - 26.6 °F 86% 29.85 in 10.0 mi Calm Calm - N/A   Scattered Clouds
6:53 AM 28.9 °F - 27.0 °F 92% 29.86 in 8.0 mi Calm Calm - N/A   Overcast
7:53 AM 30.0 °F - 28.0 °F 92% 29.89 in 10.0 mi Calm Calm - N/A   Overcast
8:53 AM 30.0 °F - 27.0 °F 88% 29.89 in 10.0 mi Calm Calm - N/A   Clear
9:53 AM 28.9 °F - 27.0 °F 92% 29.91 in 6.0 mi Calm Calm - N/A   Clear
10:53 AM 32.0 °F 27.5 °F 28.9 °F 88% 29.92 in 10.0 mi NE 4.6 mph - N/A   Mostly Cloudy
11:53 AM 34.0 °F 31.0 °F 28.0 °F 79% 29.92 in 10.0 mi NNE 3.5 mph - N/A   Overcast
12:53 PM 35.1 °F - 30.0 °F 82% 29.93 in 10.0 mi Calm Calm - N/A   Overcast
1:53 PM 35.1 °F 32.2 °F 28.0 °F 76% 29.94 in 10.0 mi NNE 3.5 mph - N/A   Overcast
2:53 PM 35.1 °F - 28.9 °F 78% 29.94 in 10.0 mi Calm Calm - N/A   Overcast
3:53 PM 34.0 °F - 28.9 °F 82% 29.94 in 10.0 mi Calm Calm - N/A   Overcast
4:53 PM 34.0 °F - 30.0 °F 85% 29.94 in 10.0 mi Calm Calm - N/A   Overcast
5:53 PM 33.1 °F - 30.0 °F 89% 29.95 in 10.0 mi Calm Calm - N/A   Overcast
6:53 PM 33.1 °F 30.0 °F 30.9 °F 92% 29.96 in 10.0 mi NE 3.5 mph - 0.00 in   Overcast
7:13 PM 33.8 °F - 30.2 °F 87% 29.96 in 9.0 mi Calm Calm - N/A   Overcast
7:53 PM 33.1 °F - 30.9 °F 92% 29.97 in 5.0 mi Calm Calm - 0.00 in Snow Light Snow
8:53 PM 33.1 °F - 32.0 °F 96% 29.98 in 3.0 mi Calm Calm - 0.01 in Snow Light Snow
9:02 PM 33.8 °F - 32.0 °F 93% 29.98 in 2.0 mi Calm Calm - 0.00 in Snow Light Snow
9:53 PM 32.0 °F - 32.0 °F 100% 29.99 in 2.0 mi Calm Calm - 0.02 in Snow Light Snow
10:06 PM 32.0 °F - 32.0 °F 100% 29.99 in 2.0 mi Calm Calm - 0.01 in Snow Light Snow
10:40 PM 32.0 °F - 32.0 °F 100% 29.98 in 3.0 mi Calm Calm - 0.02 in Snow Light Snow
10:42 PM 32.0 °F - 32.0 °F 100% 29.98 in 2.5 mi Calm Calm - 0.02 in Snow Light Snow
10:53 PM 33.1 °F - 32.0 °F 96% 29.99 in 2.5 mi Calm Calm - 0.02 in Snow Light Snow
11:53 PM 33.1 °F - 32.0 °F 96% 30.00 in 2.0 mi Calm Calm - 0.01 in Snow Light Snow